Regional Weather Roundup
Issued by NWS

Home | Current Version | Previous Version | Text Only | Print | Product List | Glossary On
Versions: 1 2 3 4 5 6 7 8 9 10 11 12 13 14 15 16 17 18 19 20 21 22 23 24 25 26 27 28 29 30 31 32 33 34 35 36 37 38 39 40 41 42 43 44 45 46 47 48 49 50
000
ASUS45 KABQ 300101
RWRNM
NEW MEXICO REGIONAL WEATHER ROUNDUP
NATIONAL WEATHER SERVICE ALBUQUERQUE NM
700 PM MDT FRI MAY 29 2015

NOTE: "FAIR" MEANS FEW OR NO CLOUDS BELOW 12,000 FEET AGL WITH NO
       SIGNIFICANT WEATHER OR OBSTRUCTIONS TO VISION.

      THIS PRODUCT IS RELEASED AS TWO VERSIONS.  ONE VERSION NEAR
      THE TOP OF THE HOUR CONTAINING PRELIMINARY DATA FROM ALBUQUERQUE
      AND OTHER STATIONS.  A FINAL VERSION WITH ADDITIONAL DATA IS
      ISSUED ABOUT 10 MINUTES AFTER THE HOUR.

NMZ501-503-504-510>518-300200-
NORTHWEST PLATEAU/NORTHCENTRAL MOUNTAINS

CITY           SKY/WX    TMP DP  RH WIND       PRES   REMARKS
FARMINGTON     SUNNY     76  26  15 W12       30.11S
SANTA FE       MOSUNNY   75  18  11 W20G29    30.13R
TAOS           MOSUNNY   66  28  24 N16       30.20R

$$
NMZ402-403-502-505>509-300200-
WESTCENTRAL MOUNTAINS/SOUTHWEST MOUNTAINS

CITY           SKY/WX    TMP DP  RH WIND       PRES   REMARKS
GALLUP         PTSUNNY   73  29  19 NW16      30.19R
SILVER CITY      N/A     82  16   8 W15       30.09S

$$
NMZ407-409-411-412-300200-
SOUTHERN DESERTS

CITY           SKY/WX    TMP DP  RH WIND       PRES   REMARKS
DEMING         SUNNY     88  21   8 W12       29.98F
HOLLOMAN AFB   MOSUNNY   90  16   6 NW5       29.94S
ALAMOGORDO     MOSUNNY   90  18   7 W3        29.96F
T OR C         PTSUNNY   86  20   9 NW10G17   30.00R

$$
NMZ519>523-300200-
CENTRAL VALLEYS/CENTRAL HIGHLANDS

CITY           SKY/WX    TMP DP  RH WIND       PRES   REMARKS
ALBUQUERQUE    PTSUNNY   77  31  18 NW18G26   30.11R
DOUBLE EAGLE   PTSUNNY   73  34  23 W13       30.15R
CLINES CORNERS SUNNY     69  31  24 W17       30.19R
BELEN          FAIR      80  29  15 NW15G21   30.09R
SOCORRO        NOT AVBL

$$
NMZ524>526-539-540-300200-
SOUTHCENTRAL MOUNTAINS

CITY           SKY/WX    TMP DP  RH WIND       PRES   REMARKS
RUIDOSO        NOT AVBL

$$
NMZ527>531-300200-
NORTHEAST HIGHLANDS/NORTHEAST PLAINS

CITY           SKY/WX    TMP DP  RH WIND       PRES   REMARKS
LAS VEGAS      PTSUNNY   70  33  25 NW8       30.16R
RATON          LGT RAIN  55  47  74 NE9       30.21R
CLAYTON        LGT RAIN  63  54  72 SE6       30.15S

$$
NMZ532>537-300200-
EASTCENTRAL PLAINS

CITY           SKY/WX    TMP DP  RH WIND       PRES   REMARKS
TUCUMCARI      CLOUDY    63  52  67 NE9       30.07R
CANNON AFB     TSTM      54  48  82 NE26      30.10R
CLOVIS AIRPORT CLOUDY    55  48  76 W26G48      N/A  THUNDER

$$
NMZ028-029-538-300200-
SOUTHEAST PLAINS

CITY           SKY/WX    TMP DP  RH WIND       PRES   REMARKS
ROSWELL        PTSUNNY   87  39  18 NW8       29.96R
ARTESIA        PTSUNNY   90  41  18 E5        29.95R
CARLSBAD       SUNNY     88  51  28 E10       29.92S
HOBBS          CLEAR     81  59  47 SE14      29.98S


$$


USA.gov is the U.S. government's official web portal to all federal, state and local government web resources and services.